This is the latest recevied weather packets stored in our database for station/object K7KAR-2. If no packets are shown the sender has not sent any weather packets the latest 10 day(s).
| Time | Temp. | Humidity | Pressure | Rain* | Wind** | Luminosity | Snow |
|---|---|---|---|---|---|---|---|
| 1787779000 | 32.78° C | 21% | 1018.9 hPa | 0 mm | - | 768 W/m² | - |
| 1787778697 | 32.78° C | 21% | 1019 hPa | 0 mm | - | 597 W/m² | - |
| 1787778392 | 32.78° C | 20% | 1019.1 hPa | 0 mm | - | 555 W/m² | - |
| 1787778088 | 33.89° C | 20% | 1019 hPa | 0 mm | - | 807 W/m² | - |
| 1787777787 | 33.89° C | 20% | 1018.9 hPa | 0 mm | - | 824 W/m² | - |
| 1787777484 | 33.33° C | 21% | 1019.2 hPa | 0 mm | - | 812 W/m² | - |
| 1787777183 | 33.89° C | 21% | 1019.5 hPa | 0 mm | - | 802 W/m² | - |
| 1787776882 | 33.33° C | 21% | 1019.5 hPa | 0 mm | - | 803 W/m² | - |
| 1787776581 | 32.78° C | 22% | 1019.2 hPa | 0 mm | - | 791 W/m² | - |
| 1787776280 | 32.78° C | 22% | 1019.5 hPa | 0 mm | - | 817 W/m² | - |
| 1787775979 | 32.22° C | 23% | 1019.4 hPa | 0 mm | - | 786 W/m² | - |
| 1787775674 | 32.78° C | 22% | 1019.7 hPa | 0 mm | - | 824 W/m² | - |
| 1787775372 | 33.33° C | 22% | 1019.6 hPa | 0 mm | - | 828 W/m² | - |
| 1787775067 | 32.22° C | 23% | 1019.8 hPa | 0 mm | - | 803 W/m² | - |
| 1787774767 | 31.67° C | 23% | 1019.8 hPa | 0 mm | - | 810 W/m² | - |
| 1787774461 | 31.67° C | 23% | 1020 hPa | 0 mm | - | 810 W/m² | - |
| 1787774161 | 31.67° C | 24% | 1019.8 hPa | 0 mm | - | 830 W/m² | - |
| 1787773859 | 31.67° C | 24% | 1019.9 hPa | 0 mm | - | 839 W/m² | - |
| 1787773558 | 31.11° C | 25% | 1020.1 hPa | 0 mm | - | 893 W/m² | - |
| 1787773254 | 31.11° C | 25% | 1020 hPa | 0 mm | - | 838 W/m² | - |
| 1787772949 | 31.11° C | 25% | 1020.2 hPa | 0 mm | - | 768 W/m² | - |
| 1787772645 | 30.56° C | 25% | 1020.3 hPa | 0 mm | - | 791 W/m² | - |
| 1787772343 | 30.56° C | 25% | 1020.5 hPa | 0 mm | - | 876 W/m² | - |
| 1787772043 | 31.11° C | 25% | 1020.3 hPa | 0 mm | - | 714 W/m² | - |
| 1787771738 | 30.56° C | 25% | 1020.5 hPa | 0 mm | - | 833 W/m² | - |
* Rain latest hour (hover to see other rain measurements)
** Current wind speed in m/s (hover to see current wind gust speed)